CAPE
1 0 0 0 0 0 0 0 0 0 0 0 0 0 0 0 0 0 0 5 274 1645 973 539 852 871 362 230 387 407 94 0 10 80 405 286 154 241 255 230 209 119 21 22 1
2 1 0 0 0 0 0 0 0 0 0 0 0 0 0 0 0 0 0 270 1385 1586 435 582 596 491 227 174 216 562 39 0 0 61 221 382 470 525 337 56 169 187 45 9 5
6 3 1 0 0 0 0 0 0 0 0 0 0 0 0 0 0 0 273 1191 1348 1175 319 315 292 273 135 94 101 162 32 29 23 51 189 435 480 424 500 461 348 378 167 51 24
3 5 3 1 0 0 0 0 0 0 0 0 0 0 0 0 0 83 1296 1532 1410 394 392 277 235 237 37 0 0 80 20 25 24 130 213 455 529 481 460 458 355 400 150 45 26
3 3 4 2 1 0 0 0 0 0 0 0 0 0 0 0 0 584 1650 1480 685 360 233 100 121 150 3 0 0 35 0 66 195 210 337 404 387 405 492 474 330 356 146 91 31
2 3 3 2 1 1 0 0 0 0 0 0 0 0 0 0 0 156 606 527 105 148 82 63 0 67 84 0 0 0 252 206 371 480 520 478 571 541 630 529 537 460 348 230 86
2 4 5 2 1 0 0 0 0 0 0 0 0 0 0 0 0 38 146 176 67 16 11 8 3 9 0 0 0 0 484 348 437 796 752 632 655 637 678 754 712 614 484 335 163
3 3 3 2 1 0 0 0 0 0 0 0 0 0 0 0 0 0 72 74 138 143 24 1 0 0 0 0 0 140 432 472 621 885 779 710 397 717 786 895 872 749 578 407 228
2 3 4 3 2 0 0 0 0 0 0 0 0 0 0 0 0 0 0 0 22 56 0 0 0 0 0 0 0 34 182 313 677 910 914 760 367 917 885 999 898 892 741 501 317
7 5 4 3 1 0 0 0 0 0 0 0 0 0 0 0 0 0 0 0 0 0 0 0 0 0 0 0 21 72 105 277 473 681 729 571 326 654 730 963 983 843 881 688 397
6 5 2 1 1 0 0 0 0 0 0 0 0 0 0 0 0 0 0 0 0 0 0 0 0 0 0 0 4 4 35 85 30 232 398 220 161 458 786 883 1018 938 881 851 605
5 5 3 3 0 0 0 0 0 0 0 0 0 0 0 0 0 0 0 0 0 0 0 0 0 0 0 0 0 0 0 9 0 0 7 3 8 63 581 737 790 964 872 805 741
5 5 4 2 0 0 0 0 0 0 0 0 0 0 0 0 0 0 0 0 0 0 0 0 0 0 0 0 0 0 3 26 4 0 0 0 0 5 26 433 607 710 963 803 773
6 8 5 1 0 0 0 0 0 0 0 0 0 0 0 0 0 0 0 0 0 0 0 0 0 0 0 0 0 11 0 0 0 0 1 0 39 21 179 328 415 719 881 978 790
6 9 8 3 0 0 0 0 0 0 0 0 0 0 0 0 0 0 0 0 0 0 0 0 0 0 0 0 0 0 12 0 0 0 2 0 0 1 0 16 351 635 812 895 996
5 8 3 0 0 0 0 0 0 0 0 0 0 0 0 0 0 0 0 0 0 0 0 0 0 0 0 0 0 0 0 0 0 1 19 7 3 2 5 23 62 467 681 829 946
3 2 0 0 0 0 0 0 0 0 0 0 0 0 0 0 0 0 0 0 0 0 0 0 0 0 0 0 0 0 0 19 13 7 1 22 14 6 0 0 0 28 160 462 756
0 0 0 0 0 0 0 0 0 0 0 0 0 0 0 0 0 0 0 0 0 0 0 0 0 0 0 0 0 0 0 27 35 19 3 1 0 0 0 0 0 0 0 0 358
0 0 0 0 0 0 0 0 0 0 0 0 0 0 0 0 0 0 0 0 0 0 0 0 0 0 0 0 0 0 0 4 34 39 18 8 0 0 0 0 0 0 158 106 59
0 0 0 0 0 0 0 0 0 0 0 0 0 0 0 0 0 0 0 0 0 0 0 0 0 0 0 0 0 0 0 0 0 23 17 1 0 0 0 0 0 0 3 33 489
0 0 0 0 0 0 0 0 0 0 0 0 0 0 0 0 0 0 0 0 0 0 0 0 0 0 0 0 0 0 0 0 0 0 6 3 0 0 0 0 0 0 0 19 569
0 0 0 0 0 0 0 0 0 0 0 0 0 0 0 0 0 0 0 0 0 0 0 0 0 0 0 0 0 0 0 0 0 0 0 1 0 0 0 0 0 0 0 59 272
0 0 0 0 0 1 0 0 0 0 0 0 0 0 0 0 0 0 0 0 0 0 0 0 0 0 0 0 0 0 0 0 0 0 0 0 0 0 0 0 0 0 0 0 111
0 2 0 0 0 0 0 4 0 0 0 0 0 0 0 0 0 0 0 0 0 0 0 0 0 0 0 0 0 0 0 0 0 0 0 0 0 0 0 0 0 0 0 26 2
0 0 0 18 12 1 0 0 3 5 0 0 0 0 0 0 0 0 0 0 0 0 0 0 1 0 0 0 0 0 0 0 0 0 0 0 0 0 0 0 0 11 29 168 105
9 8 4 11 4 8 1 21 23 34 4 7 1 1 0 0 0 0 0 0 0 0 0 0 0 0 0 0 0 0 0 0 0 0 0 0 0 0 0 0 127 496 703 837 857
0 2 5 2 7 8 25 11 28 30 3 1 0 2 2 0 0 0 0 0 0 0 0 0 0 0 3 0 0 0 0 0 0 0 0 0 3 584 411 528 811 958 1044 1090 1134
CIN
0 0 0 0 0 0 0 0 0 0 0 0 0 0 0 0 0 0 0 -44 -331 -282 -275 -178 -119 -79 -100 -69 -38 -27 -20 -14 -21 0 -4 -9 -30 -13 -27 -41 -38 -71 -118 -66 -18
0 0 0 0 0 0 0 0 0 0 0 0 0 0 0 0 0 0 0 -599 -394 -323 -145 -117 -90 -108 -73 -56 -65 -2 -5 0 0 -5 -36 0 0 0 -19 -98 -69 -43 -106 -120 -119
0 0 0 0 0 0 0 0 0 0 0 0 0 0 0 0 0 0 -614 -452 -393 -372 -135 -101 -103 -89 -69 -66 -32 -14 -1 -1 -9 -17 -16 0 0 0 -1 -1 -6 -28 -84 -96 -67
0 0 0 0 0 0 0 0 0 0 0 0 0 0 0 0 0 -129 -411 -368 -365 -182 -138 -122 -111 -51 -37 0 0 -6 -16 -11 -2 -16 -3 0 0 0 -1 -1 -3 -16 -61 -122 -72
0 0 0 0 0 0 0 0 0 0 0 0 0 0 0 0 0 -249 -296 -305 -268 -138 -95 -92 -66 -37 -23 0 0 -16 -35 -13 -2 -22 -6 -2 -6 -4 0 -5 -13 -28 -58 -71 -65
0 0 0 0 0 0 0 0 0 0 0 0 0 0 0 0 0 -222 -199 -256 -149 -111 -91 -95 0 -58 -48 0 0 0 -11 -12 -31 -17 -12 -2 -1 -2 -12 -14 -18 -33 -34 -29 -82
0 0 0 0 0 0 0 0 0 0 0 0 0 0 0 0 0 -133 -170 -143 -128 -97 -75 -72 -105 -71 0 0 0 0 0 -8 -14 -4 -8 0 -2 0 -25 -20 -17 -14 -25 -27 -77
0 0 0 0 0 0 0 0 0 0 0 0 0 0 0 0 0 0 -138 -139 -140 -122 -120 -20 0 0 0 0 0 -5 0 0 -5 -2 -11 -4 -1 -1 -40 -20 -14 -10 -27 -41 -70
0 0 0 0 0 0 0 0 0 0 0 0 0 0 0 0 0 0 0 0 -77 -131 0 0 0 0 0 0 0 -18 -6 0 -4 0 -8 -5 0 -11 -31 -21 -23 -20 -25 -44 -49
0 0 0 0 0 0 0 0 0 0 0 0 0 0 0 0 0 0 0 0 0 0 0 0 0 0 0 0 -5 0 0 0 0 -3 -4 -7 -10 -45 -42 -15 -19 -32 -34 -34 -47
0 0 0 0 0 0 0 0 0 0 0 0 0 0 0 0 0 0 0 0 0 0 0 0 0 0 0 0 -1 0 -10 0 -15 -5 0 -8 0 -6 -52 -31 -12 -24 -39 -36 -37
0 0 0 0 0 0 0 0 0 0 0 0 0 0 0 0 0 0 0 0 0 0 0 0 0 0 0 0 0 0 0 -47 0 0 -19 -12 -11 -8 -32 -40 -25 -18 -27 -37 -32
0 0 0 0 0 0 0 0 0 0 0 0 0 0 0 0 0 0 0 0 0 0 0 0 0 0 0 0 0 0 -54 -41 -13 0 0 0 0 -17 -35 -44 -43 -40 -28 -44 -51
0 0 0 0 0 0 0 0 0 0 0 0 0 0 0 0 0 0 0 0 0 0 0 0 0 0 0 0 0 -66 0 0 0 0 0 0 0 -18 -23 -35 -57 -45 -48 -60 -72
0 0 0 0 0 0 0 0 0 0 0 0 0 0 0 0 0 0 0 0 0 0 0 0 0 0 0 0 0 0 0 0 0 0 0 0 0 0 0 -28 -27 -47 -55 -62 -75
0 0 0 0 0 0 0 0 0 0 0 0 0 0 0 0 0 0 0 0 0 0 0 0 0 0 0 0 0 0 0 0 0 0 -45 -61 -59 -5 -1 -20 -14 -16 -37 -57 -73
0 0 0 0 0 0 0 0 0 0 0 0 0 0 0 0 0 0 0 0 0 0 0 0 0 0 0 0 0 0 0 0 0 0 -8 -39 -54 -8 0 0 0 -16 -27 -51 -68
0 0 0 0 0 0 0 0 0 0 0 0 0 0 0 0 0 0 0 0 0 0 0 0 0 0 0 0 0 0 0 0 0 0 0 0 0 0 0 0 0 0 0 0 -69
0 0 0 0 0 0 0 0 0 0 0 0 0 0 0 0 0 0 0 0 0 0 0 0 0 0 0 0 0 0 0 0 0 0 0 0 0 0 0 0 0 0 -29 -51 -73
0 0 0 0 0 0 0 0 0 0 0 0 0 0 0 0 0 0 0 0 0 0 0 0 0 0 0 0 0 0 0 0 0 0 0 0 0 0 0 0 0 0 -16 -77 -80
0 0 0 0 0 0 0 0 0 0 0 0 0 0 0 0 0 0 0 0 0 0 0 0 0 0 0 0 0 0 0 0 0 0 0 0 0 0 0 0 0 0 0 -63 -76
0 0 0 0 0 0 0 0 0 0 0 0 0 0 0 0 0 0 0 0 0 0 0 0 0 0 0 0 0 0 0 0 0 0 0 0 0 0 0 0 0 0 0 -81 -87
0 0 0 0 0 0 0 0 0 0 0 0 0 0 0 0 0 0 0 0 0 0 0 0 0 0 0 0 0 0 0 0 0 0 0 0 0 0 0 0 0 0 0 0 -110
0 0 0 0 0 0 0 0 0 0 0 0 0 0 0 0 0 0 0 0 0 0 0 0 0 0 0 0 0 0 0 0 0 0 0 0 0 0 0 0 0 0 0 -121 -143
0 0 0 0 0 0 0 0 0 0 0 0 0 0 0 0 0 0 0 0 0 0 0 0 0 0 0 0 0 0 0 0 0 0 0 0 0 0 0 0 0 -125 -107 -108 -153
0 0 0 0 0 0 0 0 0 0 -3 0 0 0 0 0 0 0 0 0 0 0 0 0 0 0 0 0 0 0 0 0 0 0 0 0 0 0 0 -3 -141 -118 -110 -117 -138
0 0 0 0 0 0 0 0 0 0 0 -1 0 0 0 0 0 0 0 0 0 0 0 0 0 0 0 0 0 0 0 0 0 0 0 0 0 -5 -1 -26 -48 -62 -104 -126 -146
Wind_Speed
18 18 18 18 18 19 20 20 20 19 19 18 17 17 18 17 16 7 8 5 9 19 13 15 12 10 7 5 5 4 3 3 3 3 11 17 7 7 8 11 4 5 7 20 21
17 18 19 19 20 20 19 19 19 19 20 19 18 16 18 17 8 11 6 14 26 17 17 15 11 10 6 3 3 8 6 7 5 1 13 15 15 12 7 9 7 9 13 20 21
18 18 19 19 20 21 19 20 20 19 19 19 18 17 16 15 9 3 3 18 22 19 10 8 7 8 4 2 3 1 10 6 10 4 14 15 10 7 12 10 12 16 20 22 21
20 20 20 21 21 21 21 21 21 20 19 18 18 17 15 6 6 7 7 20 18 15 12 9 7 5 3 3 2 6 4 4 8 5 12 13 13 10 3 8 11 16 21 21 20
20 21 22 22 22 22 23 22 22 21 19 18 15 13 9 9 7 8 13 16 17 14 14 11 8 5 4 2 3 3 1 10 15 7 10 12 9 9 8 9 13 17 21 20 18
20 20 20 21 22 22 23 22 22 22 20 14 11 8 8 12 5 9 13 19 14 15 12 10 3 2 9 5 4 6 1 12 13 10 10 10 11 9 7 10 14 18 21 19 18
20 20 21 22 22 23 23 22 23 22 19 13 7 6 8 9 1 6 13 16 10 14 10 10 8 9 8 5 4 4 7 11 12 14 10 9 10 8 13 13 14 16 18 18 18
20 21 21 22 23 24 23 22 22 18 9 1 7 7 7 2 4 6 10 11 12 12 9 4 9 10 9 4 7 10 8 13 11 11 7 14 12 10 14 13 14 15 16 17 19
20 20 21 21 22 23 24 23 16 6 2 6 7 6 7 6 10 13 12 9 13 12 8 4 6 11 6 11 10 9 5 4 9 9 9 10 9 10 13 13 14 15 16 16 18
19 19 20 21 22 23 25 19 3 5 7 6 3 6 7 4 3 5 10 13 13 13 10 11 9 11 12 10 12 9 8 5 8 11 10 11 4 9 12 13 15 15 16 17 18
20 21 20 21 23 23 16 6 7 8 8 9 2 5 3 4 5 9 11 15 17 15 17 19 14 16 16 13 10 8 8 6 3 5 7 8 5 13 13 14 15 16 16 18 19
19 20 21 22 23 22 10 4 5 6 9 10 14 14 9 5 4 11 9 17 18 21 21 16 21 19 16 13 10 10 10 9 5 3 8 5 7 7 15 16 14 16 17 19 19
18 19 20 22 23 9 5 6 6 3 8 4 7 9 9 11 10 12 15 18 22 25 25 25 21 20 16 13 16 15 14 10 5 6 9 7 13 12 8 13 14 15 17 18 21
18 17 18 23 9 5 2 3 7 6 7 11 9 6 8 5 9 13 13 15 16 25 28 26 23 22 17 21 17 18 13 5 7 7 8 3 7 9 12 12 15 17 18 19 20
19 18 15 9 9 5 5 6 3 6 7 7 9 7 4 10 3 10 10 15 20 20 22 26 27 21 23 21 20 17 9 12 8 10 11 12 9 11 6 9 14 18 20 21 21
22 20 16 6 5 5 6 6 5 8 8 6 5 6 9 12 7 5 11 12 15 17 18 24 19 22 23 21 19 18 7 10 10 12 14 14 11 10 10 10 11 16 19 21 22
24 21 4 1 4 5 7 6 8 10 5 5 3 4 7 8 10 9 15 19 15 18 19 22 23 20 18 23 16 18 16 12 14 14 14 14 13 12 4 5 3 7 14 18 22
24 12 3 3 4 7 6 8 9 4 1 2 3 5 10 6 4 9 13 16 14 16 16 21 23 26 16 25 22 20 21 14 18 14 15 19 10 11 11 10 10 6 10 11 22
23 4 2 5 1 5 7 9 4 2 4 4 5 9 8 6 4 6 10 13 6 7 20 19 25 27 21 20 22 21 24 21 22 18 12 11 14 12 14 14 7 12 5 6 11
7 4 4 3 3 7 7 7 3 3 5 4 7 4 9 6 10 11 12 3 4 3 7 3 18 14 17 18 18 25 15 19 14 22 23 17 18 9 4 7 7 6 6 7 6
6 5 6 1 5 7 7 1 3 2 5 4 2 3 1 1 4 5 5 7 3 1 6 6 12 16 13 16 19 12 15 15 18 20 17 17 16 13 13 13 7 10 7 6 4
5 4 5 4 7 1 3 1 2 4 3 4 5 4 3 0 2 4 7 9 6 3 6 3 11 11 21 11 12 20 21 20 14 18 12 15 12 7 2 2 2 4 9 6 5
5 3 2 5 6 3 2 4 3 4 2 3 4 4 1 1 2 4 7 5 8 3 3 1 11 14 15 13 9 14 16 20 20 17 18 17 14 15 13 9 5 9 10 8 5
5 2 4 1 1 7 5 3 4 2 2 3 1 4 5 4 1 6 9 5 3 8 5 6 3 11 10 16 10 18 15 17 18 16 17 19 14 11 9 11 11 11 9 12 10
3 5 4 4 4 7 5 3 6 4 1 2 6 7 6 5 4 5 3 7 4 3 1 6 4 5 2 2 3 9 16 19 18 20 19 15 20 20 20 13 13 12 10 11 11
5 5 3 4 4 4 1 4 5 5 6 4 6 2 4 5 4 5 3 3 2 2 1 3 4 4 5 2 4 7 13 13 14 15 16 18 16 14 6 11 11 11 13 13 12
2 1 5 4 6 5 5 4 7 12 2 8 7 7 6 9 8 9 5 4 4 3 1 3 3 6 9 5 6 11 14 13 15 15 15 16 11 9 7 10 11 13 12 13 14
Wind_Direction
352 351 349 346 344 341 338 337 335 333 330 328 327 323 321 323 300 229 257 89 170 170 167 153 182 180 200 243 244 245 195 23 49 143 150 139 147 133 55 133 146 106 146 141 145
350 348 345 343 341 339 336 332 331 329 327 325 325 322 318 326 281 253 90 143 147 177 170 171 184 177 223 242 214 264 89 125 262 13 149 175 161 143 139 147 128 117 119 136 153
347 346 343 340 338 336 333 330 327 325 323 320 320 319 316 314 277 94 92 154 158 189 178 187 179 208 256 266 144 122 70 81 131 100 153 161 137 151 149 193 158 152 150 155 158
344 342 341 338 336 333 331 328 325 321 320 317 317 315 313 267 266 59 142 155 168 191 178 179 194 221 254 307 118 275 60 164 83 127 143 155 143 145 135 65 134 144 160 159 165
343 340 337 335 332 329 327 325 320 316 315 314 310 310 281 225 252 102 144 158 180 187 187 195 206 252 301 334 275 240 25 155 144 177 151 139 147 128 130 103 129 145 159 164 169
342 339 334 331 329 326 324 322 318 314 311 306 295 295 244 241 82 134 157 171 190 194 206 208 281 314 288 301 284 351 323 138 146 149 152 172 148 168 135 144 141 157 164 169 171
341 336 333 330 328 324 320 320 317 312 308 299 253 243 248 241 58 155 175 190 193 207 208 221 259 283 335 292 5 269 160 146 159 157 162 156 171 208 142 157 157 168 168 171 173
340 336 331 328 326 321 318 316 313 306 312 85 172 230 254 81 202 178 178 195 202 229 260 275 258 263 260 308 252 234 244 166 149 169 147 225 131 136 156 165 168 171 172 176 178
338 333 328 326 324 320 318 313 306 285 178 165 219 255 248 133 206 216 202 204 197 212 226 263 244 246 215 238 231 203 217 196 141 204 148 233 92 141 174 174 172 177 177 184 182
333 328 327 326 323 321 320 302 174 222 211 241 257 233 211 200 176 217 205 225 190 190 202 221 223 228 218 223 231 195 214 169 159 174 209 197 190 155 183 187 176 182 182 188 189
333 329 327 327 324 323 318 215 215 186 206 259 58 261 115 323 222 204 182 197 211 198 201 196 207 215 220 220 277 302 266 183 162 133 219 241 245 168 183 198 185 185 186 192 193
332 329 326 327 324 316 279 33 42 347 293 236 250 261 262 288 279 210 190 194 198 205 209 192 223 215 227 224 223 225 226 207 141 203 243 248 255 227 175 208 198 191 189 195 191
328 327 325 326 320 293 8 59 335 248 255 201 218 248 233 201 231 231 198 210 202 209 203 218 213 222 209 207 219 223 229 210 240 170 233 271 253 214 202 199 211 202 198 199 194
327 327 328 327 292 353 190 359 315 228 264 152 194 165 175 210 228 219 219 211 218 226 213 222 223 209 207 220 215 221 216 241 220 237 236 236 274 165 169 196 207 203 202 200 199
325 325 325 329 319 254 42 321 313 227 261 105 135 112 159 218 76 172 203 210 226 215 222 212 217 204 215 219 210 238 180 226 234 243 254 230 245 267 166 203 201 208 203 205 197
325 325 320 189 221 308 309 304 227 229 230 144 148 195 202 197 191 137 186 230 225 222 226 236 212 221 219 220 223 230 198 217 227 252 246 237 259 267 215 203 203 192 203 203 203
329 328 266 272 14 329 296 217 218 248 89 142 170 213 233 174 175 211 184 192 191 203 203 215 224 219 224 218 199 228 212 218 218 225 239 240 237 242 73 151 292 206 197 208 207
326 310 140 314 289 301 249 218 245 31 219 91 273 226 220 183 168 182 197 190 220 237 213 206 207 203 192 223 205 216 224 233 226 229 234 217 226 240 250 267 253 272 259 252 200
311 198 218 33 319 247 245 222 328 47 339 302 224 229 172 177 257 171 189 196 169 236 232 205 216 192 219 214 223 201 224 239 252 256 260 228 211 233 253 249 237 261 275 287 237
309 260 77 337 293 256 243 262 321 302 321 252 257 268 198 166 201 201 178 135 196 240 256 215 209 188 193 215 213 239 200 220 233 240 241 228 249 240 215 231 171 219 297 326 249
255 252 59 299 265 235 250 333 273 257 299 280 257 231 247 202 290 157 150 98 13 134 242 227 248 156 173 208 185 193 222 219 237 221 240 237 238 228 236 263 294 314 334 349 266
294 250 48 267 248 279 251 12 18 255 216 266 275 281 301 46 138 143 130 44 8 286 193 193 220 201 203 191 235 219 212 207 224 222 240 270 248 155 73 110 245 297 6 0 298
328 341 102 276 279 179 125 232 272 266 257 254 226 288 292 118 187 116 122 61 20 34 8 104 216 218 199 174 191 229 223 231 230 247 231 228 234 252 257 252 290 333 343 336 296
280 248 128 123 340 310 326 272 242 152 232 272 292 229 204 199 42 157 137 85 46 33 343 258 218 257 237 221 213 204 222 222 239 228 233 239 249 238 221 271 301 325 327 326 311
332 64 11 0 68 331 294 320 281 220 328 261 193 245 205 193 191 142 154 151 109 69 273 316 199 263 64 63 239 268 211 216 229 239 244 242 240 243 259 287 322 308 305 314 321
336 327 127 9 316 308 357 22 321 9 311 122 271 138 217 250 301 181 196 230 19 103 326 325 146 272 212 192 221 231 219 239 246 241 246 253 261 288 318 306 301 318 324 322 321
48 134 283 11 9 330 24 349 6 339 124 26 323 268 188 65 9 2 1 19 41 320 99 294 256 233 218 176 226 233 222 224 230 231 246 244 255 18 309 318 322 315 327 329 329